This is the latest recevied weather packets stored in our database for station/object SV9FBP. If no packets are shown the sender has not sent any weather packets the latest 10 day(s).
| Time | Temp. | Humidity | Pressure | Rain* | Wind** | Luminosity | Snow |
|---|---|---|---|---|---|---|---|
| 1778224557 | 20° C | 81% | 1017.8 hPa | 0 mm | - | - | - |
| 1778223656 | 19.44° C | 81% | 1017.5 hPa | 0 mm | - | - | - |
| 1778222753 | 19.44° C | 82% | 1017.4 hPa | 0 mm | - | - | - |
| 1778221851 | 19.44° C | 82% | 1017 hPa | 0 mm | - | - | - |
| 1778220949 | 18.89° C | 82% | 1016.9 hPa | 0 mm | - | - | - |
| 1778220047 | 18.89° C | 82% | 1017 hPa | 0 mm | - | - | - |
| 1778219145 | 18.89° C | 82% | 1017.3 hPa | 0 mm | - | - | - |
| 1778218242 | 18.33° C | 82% | 1016.8 hPa | 0 mm | - | - | - |
| 1778217340 | 18.33° C | 81% | 1016.8 hPa | 0 mm | - | - | - |
| 1778216438 | 18.33° C | 80% | 1016.6 hPa | 0 mm | - | - | - |
| 1778215537 | 17.78° C | 79% | 1016.3 hPa | 0 mm | - | - | - |
| 1778214634 | 17.78° C | 78% | 1016.2 hPa | 0 mm | - | - | - |
| 1778213731 | 17.22° C | 81% | 1016.2 hPa | 0 mm | - | - | - |
| 1778212830 | 17.22° C | 80% | 1016.5 hPa | 0 mm | - | - | - |
| 1778211928 | 16.67° C | 80% | 1016.6 hPa | 0 mm | - | - | - |
| 1778211011 | 16.67° C | 80% | 1016.8 hPa | 0 mm | - | - | - |
| 1778210109 | 16.67° C | 80% | 1016.9 hPa | 0 mm | - | - | - |
| 1778209207 | 16.67° C | 79% | 1016.7 hPa | 0 mm | - | - | - |
| 1778208304 | 17.22° C | 79% | 1016.8 hPa | 0 mm | - | - | - |
| 1778207403 | 17.22° C | 78% | 1016.7 hPa | 0 mm | - | - | - |
| 1778206500 | 17.22° C | 78% | 1016.7 hPa | 0 mm | - | - | - |
| 1778205601 | 17.22° C | 78% | 1016.7 hPa | 0 mm | - | - | - |
| 1778204696 | 17.22° C | 77% | 1016.8 hPa | 0 mm | - | - | - |
| 1778203794 | 17.22° C | 77% | 1016.6 hPa | 0 mm | - | - | - |
| 1778202892 | 17.22° C | 76% | 1016.6 hPa | 0 mm | - | - | - |
* Rain latest hour (hover to see other rain measurements)
** Current wind speed in m/s (hover to see current wind gust speed)